Cloud_Cover
100 31 5 0 5 5 0 0 0 0 0 0 0 0 0 0 2 4 1 10 0 4 5 9 1 3 0 69 0 0 0 0 0 0 0 0 2 0 0 0 0 4 100
91 62 5 1 4 17 2 4 0 0 0 0 0 0 0 0 0 0 6 4 0 0 0 0 2 3 0 0 0 0 0 0 0 0 0 0 0 24 0 0 0 13 44
100 10 5 0 4 2 14 1 5 0 1 0 0 0 2 1 0 0 6 12 0 0 2 4 0 39 0 0 0 0 0 0 0 0 0 0 0 4 0 0 0 9 15
100 4 5 3 5 4 9 0 5 4 0 0 2 5 9 6 3 6 4 1 0 4 2 0 0 0 0 0 0 0 0 0 0 0 0 0 0 0 0 0 0 1 6
100 24 4 4 5 5 5 4 5 5 5 5 3 11 16 10 10 1 7 0 3 0 0 1 0 0 0 0 0 0 0 0 0 0 5 0 0 0 0 0 0 6 5
94 46 5 5 5 5 5 8 7 5 5 24 6 5 4 4 4 4 5 0 0 0 0 0 0 0 0 0 0 0 0 0 0 0 0 31 5 5 1 1 0 0 0
64 95 96 12 94 67 6 99 97 55 21 6 26 5 5 5 6 3 0 0 0 0 0 0 0 0 0 0 0 0 0 0 0 0 0 0 5 4 72 6 11 4 4
100 100 100 100 84 92 100 88 75 90 28 6 5 5 15 96 67 46 8 0 0 0 0 0 2 4 5 4 3 0 1 1 0 0 0 0 0 4 5 100 25 82 88
39 100 100 100 100 100 100 100 99 95 66 42 7 7 6 27 100 88 10 5 5 0 5 76 49 9 5 4 1 0 0 0 4 0 0 0 0 0 5 58 44 93 45
100 100 100 100 100 100 93 100 100 100 100 100 100 100 100 42 100 100 35 6 5 98 96 88 58 5 6 6 5 5 0 0 0 0 0 0 0 0 0 0 5 5 11
87 16 100 100 100 100 98 99 100 100 100 100 100 100 100 90 87 100 100 47 97 100 91 100 100 100 77 23 5 4 0 0 0 0 0 0 0 0 0 0 0 0 0
73 14 22 100 100 100 100 100 100 100 100 100 100 100 100 100 92 99 100 78 100 100 100 100 100 88 5 5 3 2 8 2 2 0 0 0 0 0 0 0 0 3 4
0 0 0 25 81 100 100 100 100 100 100 100 100 100 100 100 100 100 100 100 100 100 100 100 100 100 20 6 5 5 21 5 2 0 0 0 0 0 0 5 4 4 4
1 28 0 27 66 88 100 100 100 100 100 100 100 100 100 100 100 100 100 100 100 100 100 100 94 97 77 25 79 94 100 73 9 21 5 2 3 0 3 5 5 5 5
4 0 0 0 15 16 29 100 100 100 100 100 100 100 100 100 100 100 100 100 100 100 100 100 100 84 95 15 46 40 90 40 17 98 89 62 38 8 12 6 6 91 18
0 5 4 5 5 13 66 63 95 100 100 100 100 100 100 100 100 100 100 100 100 100 100 100 100 100 98 74 21 5 29 66 77 99 100 100 100 100 98 91 76 62 5
0 0 4 5 47 97 96 100 100 100 100 100 100 100 100 100 100 100 100 100 100 100 100 100 100 97 100 54 90 6 86 100 99 5 8 46 100 100 100 100 100 100 100
1 1 0 0 4 4 99 100 100 100 100 100 100 100 100 100 100 100 100 100 100 100 100 100 100 100 100 100 100 100 98 100 45 100 100 100 99 38 0 34 98 100 99
5 5 5 4 0 5 5 100 96 100 100 100 100 100 100 100 100 100 100 100 100 100 100 100 100 100 100 100 100 100 100 100 100 100 100 100 100 30 3 3 14 98 7
22 75 8 5 5 0 5 72 100 100 100 100 100 100 100 100 100 100 100 100 100 100 100 100 100 100 100 100 100 100 100 100 100 100 100 100 100 6 5 0 26 100 64
5 50 100 93 5 18 0 5 26 95 100 100 100 100 100 100 100 100 100 100 100 100 100 100 100 100 100 100 100 100 100 100 100 100 100 100 100 5 5 5 0 0 94
100 92 42 100 31 8 57 3 4 2 49 79 100 99 100 100 100 100 100 100 100 100 100 100 100 100 100 100 100 100 100 100 100 100 100 100 46 5 4 4 3 8 24
100 100 80 100 100 63 33 92 6 5 1 7 68 100 100 100 100 100 99 100 100 100 100 100 100 100 100 100 100 100 100 100 100 100 100 82 32 5 5 5 5 32 36
100 100 100 100 100 99 87 78 57 5 23 11 3 27 100 100 100 100 100 100 93 91 100 100 100 100 100 100 92 94 100 100 100 100 76 100 28 5 5 26 70 100 100
100 100 100 100 100 100 100 100 100 48 8 8 58 11 5 59 91 47 11 30 59 98 69 95 97 30 38 86 100 93 99 100 100 100 100 32 5 12 5 5 6 6 5
100 100 100 100 100 100 100 100 100 100 100 87 43 9 5 5 5 5 5 5 5 9 28 26 18 17 14 41 8 62 100 100 99 98 100 95 39 5 36 9 5 10 76